Weather reports worldwide

Advertisment
Malmo/Sturup, Sweden (2636): temperature & dewpoint: 27.05.2020 23:00:00 - 02.06.2020 23:00:00 (CEST)Malmo/Sturup, Sweden (2636): wind speed: 27.05.2020 23:00:00 - 02.06.2020 23:00:00 (CEST)Malmo/Sturup, Sweden (2636): wind direction: 27.05.2020 23:00:00 - 02.06.2020 23:00:00 (CEST)Malmo/Sturup, Sweden (2636): reduced air pressure: 27.05.2020 23:00:00 - 02.06.2020 23:00:00 (CEST)Malmo/Sturup, Sweden (2636): visibility: 27.05.2020 23:00:00 - 02.06.2020 23:00:00 (CEST)
Date & Time tt [°C] td [°C] ff [km/h] ff [kn] dd ppp [hPa] vv [km]
02.06.2020 23:00:00 - - - - - - -
02.06.2020 22:00:00 14,0 11,0 15 8 ESE - 10
02.06.2020 21:00:00 18,3 11,6 4 2 - 1013,1 10
02.06.2020 20:00:00 19,1 11,2 8 4 NNW 1013,5 10
02.06.2020 19:00:00 19,9 10,9 4 2 E 1014,3 10
02.06.2020 18:00:00 19,0 10,8 13 7 ESE 1015,1 10
02.06.2020 17:00:00 20,6 8,9 18 10 NNW 1015,5 10
02.06.2020 16:00:00 23,8 6,1 26 14 WNW 1015,0 10
02.06.2020 15:00:00 24,4 7,5 26 14 WNW 1015,1 10
02.06.2020 14:00:00 24,7 10,2 22 12 WNW 1015,9 10
02.06.2020 13:00:00 25,3 12,2 18 10 W 1016,7 10
02.06.2020 12:00:00 23,4 11,4 16 9 WNW 1017,4 10
02.06.2020 11:00:00 22,3 12,8 18 10 WNW 1018,1 10
02.06.2020 10:00:00 20,6 12,8 18 10 NW 1018,7 10
02.06.2020 09:00:00 19,0 11,8 15 8 NW 1019,4 10
02.06.2020 08:00:00 16,5 11,0 15 8 NNW 1019,9 10
02.06.2020 07:00:00 14,4 11,0 13 7 NW 1020,3 10
02.06.2020 06:00:00 12,4 11,1 11 6 NW 1020,6 10
02.06.2020 05:00:00 9,0 8,2 4 2 N 1021,3 10
02.06.2020 04:00:00 10,3 8,7 8 4 WNW 1021,5 10
02.06.2020 03:00:00 9,7 8,9 5 3 NW 1022,5 10
02.06.2020 02:00:00 9,9 9,1 4 2 NNW 1022,8 10
02.06.2020 01:00:00 10,6 8,9 5 3 N 1023,3 10
02.06.2020 00:00:00 11,9 8,9 8 4 NNW 1023,6 10
01.06.2020 23:00:00 12,5 8,4 9 5 WNW 1023,7 10
01.06.2020 22:00:00 14,9 9,3 9 5 NW 1023,8 10
01.06.2020 21:00:00 17,4 8,5 15 8 NW 1023,7 10
01.06.2020 20:00:00 19,8 5,4 18 10 WNW 1023,8 10
01.06.2020 19:00:00 21,3 4,8 21 11 WNW 1024,1 10
01.06.2020 18:00:00 21,6 5,5 18 10 WNW 1024,5 10
01.06.2020 17:00:00 22,2 6,0 21 11 WNW 1024,9 10
01.06.2020 16:00:00 22,6 6,4 16 9 WNW 1025,7 10
01.06.2020 15:00:00 22,6 6,4 18 10 WNW 1026,0 10
01.06.2020 14:00:00 22,5 5,9 15 8 NNW 1026,5 10
01.06.2020 13:00:00 21,6 4,6 11 6 N 1027,0 10
01.06.2020 12:00:00 20,7 3,8 13 7 N 1027,4 10
01.06.2020 11:00:00 19,8 3,9 13 7 NNW 1027,9 10
01.06.2020 10:00:00 19,3 5,0 9 5 N 1028,0 10
01.06.2020 09:00:00 16,7 5,0 9 5 N 1028,3 10
01.06.2020 08:00:00 15,0 5,5 11 6 N 1028,1 10
01.06.2020 07:00:00 11,8 5,0 11 6 N 1028,1 10
01.06.2020 06:00:00 8,6 4,6 11 6 N 1028,3 10
01.06.2020 05:00:00 5,4 3,7 9 5 N 1028,5 10
01.06.2020 04:00:00 5,7 4,1 5 3 NNE 1028,4 10
01.06.2020 03:00:00 5,8 3,8 5 3 NE 1028,5 10
01.06.2020 02:00:00 6,3 4,5 5 3 NNE 1028,8 10
01.06.2020 01:00:00 7,0 4,8 5 3 NNE 1028,5 10
01.06.2020 00:00:00 8,2 4,6 5 3 NNE 1028,4 10
31.05.2020 23:00:00 10,2 5,0 5 3 E 1028,2 10
31.05.2020 22:00:00 13,6 4,5 13 7 E 1027,9 10
31.05.2020 21:00:00 15,6 4,6 11 6 E 1027,4 10
31.05.2020 20:00:00 17,8 5,1 18 10 E 1026,7 10
31.05.2020 19:00:00 19,0 4,4 16 9 E 1026,5 10
31.05.2020 18:00:00 20,1 4,2 16 9 E 1026,2 10
31.05.2020 17:00:00 20,4 4,8 21 11 ENE 1026,3 10
31.05.2020 16:00:00 20,9 4,4 22 12 E 1026,4 10
31.05.2020 15:00:00 20,2 4,6 24 13 NE 1026,6 10
31.05.2020 14:00:00 20,3 4,7 31 17 E 1026,5 10
31.05.2020 13:00:00 19,7 3,8 29 16 ENE 1026,5 10
31.05.2020 12:00:00 19,0 3,6 39 21 ENE 1026,4 10
31.05.2020 11:00:00 18,4 3,1 34 18 ENE 1026,3 10
31.05.2020 10:00:00 17,9 5,8 24 13 ENE 1026,2 10
31.05.2020 09:00:00 16,1 5,7 16 9 NNE 1026,1 10
31.05.2020 08:00:00 13,5 5,4 18 10 NNE 1026,0 10
31.05.2020 07:00:00 11,6 4,8 16 9 NNE 1026,0 10
31.05.2020 06:00:00 9,7 4,9 15 8 NNE 1025,8 10
31.05.2020 05:00:00 9,3 4,5 14 8 N 1025,8 50
31.05.2020 04:00:00 7,6 4,4 15 8 N 1026,1 10
31.05.2020 03:00:00 7,5 4,6 15 8 NNW 1026,6 10
31.05.2020 02:00:00 8,6 5,7 16 9 N 1026,9 10
31.05.2020 01:00:00 8,0 5,8 13 7 N 1027,1 10
31.05.2020 00:00:00 9,9 7,1 13 7 N 1027,3 10
30.05.2020 23:00:00 8,9 6,9 11 6 N 1027,2 10
30.05.2020 22:00:00 11,6 7,9 4 2 WNW 1027,1 10
30.05.2020 21:00:00 15,0 7,8 2 1 S 1026,7 10
30.05.2020 20:00:00 15,1 7,1 4 2 S 1026,6 10
30.05.2020 19:00:00 15,1 6,4 9 5 S 1026,5 10
30.05.2020 18:00:00 14,8 6,1 13 7 S 1026,5 10
30.05.2020 17:00:00 14,9 5,4 13 7 S 1026,5 10
30.05.2020 16:00:00 15,6 5,5 16 9 S 1026,5 10
30.05.2020 15:00:00 15,6 4,6 16 9 SW 1026,6 10
30.05.2020 14:00:00 17,8 4,4 11 6 NNE 1026,9 10
30.05.2020 13:00:00 17,6 3,1 11 6 NNE 1027,1 10
30.05.2020 12:00:00 18,3 3,4 9 5 ESE 1027,2 10
30.05.2020 11:00:00 17,2 2,8 11 6 E 1027,6 10
30.05.2020 10:00:00 16,0 2,0 13 7 E 1028,2 10
30.05.2020 09:00:00 15,4 1,9 9 5 E 1028,4 10
30.05.2020 08:00:00 14,8 7,1 4 2 - 1028,4 10
30.05.2020 07:00:00 11,5 7,8 0 0 N 1028,5 10
30.05.2020 06:00:00 7,0 6,3 4 2 - 1028,6 10
30.05.2020 05:00:00 4,5 3,9 4 2 - 1028,4 10
30.05.2020 04:00:00 6,1 5,7 4 2 E 1028,3 10
30.05.2020 03:00:00 5,9 5,3 4 2 ESE 1028,6 10
30.05.2020 02:00:00 5,6 5,0 4 2 E 1028,7 10
30.05.2020 01:00:00 6,8 5,9 4 2 E 1028,8 10
30.05.2020 00:00:00 7,6 5,7 4 2 SE 1028,7 10
29.05.2020 23:00:00 9,0 5,9 4 2 - 1028,6 10
29.05.2020 22:00:00 11,3 5,6 5 3 SE 1028,4 10
29.05.2020 21:00:00 15,4 3,8 5 3 SSE 1028,1 10
29.05.2020 20:00:00 15,2 5,1 5 3 SSE 1028,2 10
29.05.2020 19:00:00 16,4 3,8 9 5 SSE 1028,2 10
29.05.2020 18:00:00 15,8 4,5 11 6 SSE 1028,4 10
29.05.2020 17:00:00 14,5 7,1 8 4 SSE 1028,7 10
29.05.2020 16:00:00 14,1 6,5 9 5 SSE 1029,0 10
29.05.2020 15:00:00 15,9 7,1 11 6 ESE 1028,8 45
29.05.2020 14:00:00 19,0 7,4 15 8 WNW 1028,9 10
29.05.2020 13:00:00 18,1 7,8 18 10 NW 1029,5 10
29.05.2020 12:00:00 17,6 6,8 18 10 NW 1030,1 10
29.05.2020 11:00:00 17,1 7,4 18 10 NNW 1030,3 10
29.05.2020 10:00:00 15,9 5,5 18 10 NW 1030,5 10
29.05.2020 09:00:00 14,4 6,5 16 9 NNW 1030,6 10
29.05.2020 08:00:00 12,5 6,5 13 7 NNW 1030,8 10
29.05.2020 07:00:00 11,1 8,5 11 6 NW 1030,9 10
29.05.2020 06:00:00 7,6 5,7 4 2 NW 1031,1 10
29.05.2020 05:00:00 5,7 4,0 5 3 NW 1031,2 10
29.05.2020 04:00:00 6,1 4,1 5 3 NNW 1031,1 10
29.05.2020 03:00:00 6,1 3,3 4 2 NNW 1031,2 10
29.05.2020 02:00:00 6,7 3,3 5 3 NW 1031,4 10
29.05.2020 01:00:00 7,2 3,1 5 3 NW 1031,2 10
29.05.2020 00:00:00 9,0 3,2 5 3 NNW 1031,2 10
28.05.2020 23:00:00 9,1 2,9 9 5 NNW 1031,2 10
28.05.2020 22:00:00 10,6 3,6 9 5 NW 1031,2 10
28.05.2020 21:00:00 13,5 4,9 8 4 W 1030,8 10
28.05.2020 20:00:00 15,3 5,5 9 5 W 1030,8 10
28.05.2020 19:00:00 15,5 9,2 8 4 SSW 1030,8 10
28.05.2020 18:00:00 15,1 8,3 9 5 SW 1031,0 10
28.05.2020 17:00:00 15,1 9,0 11 6 WSW 1031,3 10
28.05.2020 16:00:00 15,2 7,5 15 8 S 1031,4 10
28.05.2020 15:00:00 15,3 7,6 16 9 SSW 1031,5 10
28.05.2020 14:00:00 16,5 8,2 16 9 S 1031,2 10
28.05.2020 13:00:00 16,0 8,7 21 11 SSE 1031,0 10
28.05.2020 12:00:00 18,4 2,7 11 6 ENE 1030,6 10
28.05.2020 11:00:00 17,6 5,2 9 5 NNE 1030,6 10
28.05.2020 10:00:00 15,9 8,1 8 4 N 1030,6 10
28.05.2020 09:00:00 14,2 7,3 11 6 NW 1030,5 10
28.05.2020 08:00:00 12,4 8,3 16 9 NNW 1030,3 10
28.05.2020 07:00:00 10,7 9,1 16 9 NW 1030,2 10
28.05.2020 06:00:00 9,1 8,3 15 8 NNW 1029,9 10
28.05.2020 05:00:00 7,6 7,2 11 6 NW 1029,7 10
28.05.2020 04:00:00 8,2 7,1 13 7 NW 1029,7 10
28.05.2020 03:00:00 8,7 7,3 13 7 NW 1029,7 10
28.05.2020 02:00:00 9,6 7,2 18 10 NW 1029,8 10
28.05.2020 01:00:00 9,8 7,1 16 9 NW 1029,8 10
28.05.2020 00:00:00 10,5 6,1 18 10 NW 1030,0 10
27.05.2020 23:00:00 11,7 6,0 18 10 NW 1030,0 10

tt = temperature
td = dewpoint
ff = wind speed
dd = wind direction
ppp = reduced air pressure
vv = visibility

Next stations